Location: Engwerd
(53.0833°N, 5.7500°E)
Time: 00:27:43
(UTC+00:00)

Daily predictions for brighter satellites

Satellite Brightness Start Highest point End
(mag) Time Altitude Azimuth Time Altitude Azimuth Time Altitude Azimuth
Cosmos 923 Rocket 4.0 00:01:13 10° NNW 00:06:32 89° WSW 00:11:01 14° SSE
Cosmos 1937 Rocket 4.3 00:04:13 17° SSE 00:07:44 40° ESE 00:12:36 10° NE
SL-12 R/B(2) 4.4 00:02:26 12° SSW 00:10:07 76° SE 00:20:12 10° NE
Cosmos 1898 Rocket 3.7 00:13:33 19° S 00:17:10 60° ESE 00:22:16 10° NNE
GEOS 3 Rocket 4.2 00:14:03 10° NE 00:18:54 40° SE 00:22:15 18° S
Meteor 2-1 Rocket 4.3 00:13:51 10° NNW 00:19:48 86° ENE 00:24:46 15° SSE
CZ-2D R/B 4.1 00:26:35 10° NE 00:30:20 19° E 00:34:00 10° SE
In-Cosmos 22 Rocket 4.3 00:27:54 17° S 00:32:25 82° E 00:38:17 10° NNE
Cosmos 1606 2.5 00:29:12 10° N 00:32:48 84° E 00:35:21 18° SSE
ADEOS II 4.4 00:31:32 10° NE 00:34:20 14° E 00:37:07 10° ESE
Helios 1A Rocket 2.8 00:32:17 15° SSE 00:35:21 78° ENE 00:39:11 10° NNW
Cosmos 1869 3.1 00:33:07 10° NNW 00:36:51 89° W 00:39:31 18° S
Cosmos 1607 4.3 00:30:59 10° NW 00:37:28 74° NE 00:43:48 10° SE
SL-16 R/B 3.2 00:34:48 10° NW 00:39:40 30° WSW 00:43:09 16° SSW
USA 234 3.8 00:34:06 10° ENE 00:40:33 64° N 00:47:01 10° W
CZ-2C R/B 3.8 00:36:34 10° SE 00:41:34 43° ENE 00:46:42 10° N
Cosmos 2341 Rocket 4.1 00:36:54 16° S 00:41:59 80° E 00:48:16 10° NNE
CENTAUR R/B 2.8 00:36:07 10° SW 00:42:07 77° NW 00:49:42 10° NE
Cosmos 1437 Rocket 4.5 00:41:38 10° SSE 00:44:44 24° E 00:47:48 10° NE
Cosmos 1603 3.8 00:39:25 10° NNW 00:45:14 83° ENE 00:50:59 10° SSE
Cosmos 1461 2.8 00:43:01 19° SSW 00:45:43 65° SE 00:49:34 10° NE
Cosmos 1680 Rocket 3.6 00:42:08 10° NNW 00:47:15 59° WSW 00:51:38 14° S
Cosmos 2228 3.1 00:43:30 10° N 00:47:51 78° ENE 00:51:39 13° SSE
CRYOSAT 2 4.4 00:45:21 10° N 00:50:16 79° W 00:54:08 16° SSW
Cosmos 1943 3.2 00:45:12 10° NW 00:50:46 65° WSW 00:56:19 10° SSE
Cosmos 2112 Rocket 4.0 00:46:09 10° NNW 00:51:17 63° WSW 00:55:57 12° S
Cosmos 292 Rocket 4.1 00:48:11 14° SW 00:52:11 60° WNW 00:56:59 10° NNE
Cosmos 2227 Rocket 3.3 00:47:36 10° WSW 00:52:57 41° NW 00:58:19 10° NNE
Cosmos 2082 3.7 00:48:25 15° SW 00:53:12 81° WNW 00:58:51 10° NNE
Aureole 1 Rocket 3.7 00:53:40 14° SW 00:56:58 52° WNW 01:01:56 10° NNE
Resurs 1-4 Rocket 3.5 00:53:17 10° NNE 00:57:59 31° E 01:02:39 10° SSE
Cosmos 1821 Rocket 4.4 00:56:51 11° S 01:02:40 57° E 01:08:43 10° NNE
Cosmos 724 4.4 00:57:07 10° NW 01:02:57 79° NE 01:08:48 10° SE
BREEZE-M DEB (TANK) 3.7 01:00:19 10° W 01:03:39 17° SW 01:04:15 16° SW
USA 238 DEB 4.2 00:59:38 14° S 01:04:35 42° ESE 01:10:53 10° NE
USA 238 4.3 00:59:40 14° S 01:04:38 42° ESE 01:10:55 10° NE
H-2A R/B 3.7 01:04:13 10° N 01:07:41 25° WNW 01:11:04 10° WSW
BlueWalker 3 1.7 01:05:49 10° W 01:09:34 80° SSW 01:13:19 10° ESE
Cosmos 1544 Rocket 4.0 01:06:56 10° NNW 01:11:13 49° W 01:14:43 15° SSW
Cosmos 2218 Rocket 4.0 01:07:06 14° SSW 01:12:33 81° W 01:18:45 10° N
Cosmos 2297 Rocket 4.2 01:08:47 10° W 01:13:16 23° NNW 01:17:46 10° NNE
Cosmos 2366 rocket 4.1 01:08:29 14° SSW 01:13:58 77° WNW 01:20:13 10° N
ATLAS CENTAUR R/B 4.4 01:12:49 10° NNW 01:15:21 17° NNE 01:17:56 10° ENE
Cosmos 1048 Rocket 4.1 01:15:03 10° NNW 01:20:19 85° ENE 01:25:36 10° SSE
Cosmos 372 Rocket 4.4 01:15:43 12° SW 01:20:27 56° WNW 01:25:36 10° NNE
Cosmos 2219 4.1 01:15:40 10° WSW 01:21:00 42° NW 01:26:21 10° NNE
Cosmos 494 Rocket 4.0 01:18:39 10° NNW 01:23:52 70° WSW 01:29:05 10° SSE
CZ-4C R/B 4.0 01:20:10 10° WNW 01:25:07 34° N 01:31:17 10° NE
Cosmos 921 Rocket 2.9 01:22:39 10° NNW 01:26:54 71° WSW 01:31:03 10° SSE
Cosmos 1975 Rocket 4.4 01:25:49 11° SW 01:29:32 29° WNW 01:33:26 10° N
Cosmos 2227 4.3 01:26:28 13° SSW 01:31:42 85° ESE 01:37:31 10° NNE
IDEFIX/ARIANE 42P 2.8 01:27:20 10° NNE 01:32:36 72° ESE 01:37:49 10° S
Cosmos 2123 Rocket 4.4 01:29:36 10° N 01:35:47 65° ENE 01:41:57 10° SSE
MSX 4.1 01:32:04 10° NNE 01:37:48 70° ESE 01:43:31 10° S
Cosmos 1844 4.2 01:32:48 11° S 01:38:19 55° ESE 01:43:58 10° NE
Cosmos 2263 Rocket 3.1 01:34:11 10° WSW 01:39:28 42° NW 01:44:46 10° NNE
NOSS 3-2 (A) 4.0 01:34:21 10° WSW 01:39:49 57° NNW 01:46:28 10° NE
Meteor 1-28 Rocket 4.0 01:39:07 10° SE 01:42:31 48° ENE 01:45:59 10° N
Cosmos 1606 Rocket 3.6 01:42:05 10° NNW 01:46:32 74° W 01:50:55 10° S
NOSS 3-2 (C) 3.5 01:42:39 10° SW 01:48:07 80° NW 01:54:46 10° NE
Cosmos 1937 Rocket 4.4 01:44:42 10° SW 01:49:40 41° NW 01:54:38 10° NNE
CZ-2C R/B 3.4 01:47:13 10° NNE 01:52:38 68° ESE 01:57:42 10° S
Genesis I 2.9 01:50:50 10° NW 01:54:27 80° SW 01:58:04 10° SE
GEOS 3 Rocket 4.1 01:52:00 10° NE 01:57:07 59° NW 02:02:08 10° WSW
Iridium 2 3.7 01:54:55 10° SSE 01:57:12 40° E 01:59:31 10° NNE
Cosmos 1844 Rocket 2.8 01:51:38 10° SSW 01:57:12 80° ESE 02:02:49 10° NNE
SL-24 DEB 4.5 01:53:07 10° N 01:57:41 70° E 02:02:16 10° S
Cosmos 1536 Rocket 4.1 01:54:56 10° SSW 01:59:10 46° WNW 02:03:26 10° N
SL-16 R/B 2.7 01:53:01 10° SSE 01:59:16 82° ENE 02:05:31 10° NNW
Cosmos 1726 Rocket 3.6 01:55:58 10° NNW 02:00:24 71° W 02:04:47 10° S
Cosmos 1867 3.6 01:55:17 10° SW 02:00:45 85° SE 02:06:17 10° NE
Cosmos 1727 Rocket 4.5 01:56:43 10° NNW 02:02:44 47° W 02:08:45 10° SSW
H-2A R/B 3.5 02:01:46 10° N 02:05:44 65° WNW 02:09:41 10° SSW
Cosmos 1238 Rocket 2.9 02:07:06 10° N 02:10:27 58° ENE 02:13:26 10° SSE
CZ-2D R/B 2.2 02:05:39 10° NNE 02:11:01 82° WNW 02:16:17 10° SSW
USA 81 4.2 02:07:16 10° N 02:12:36 86° E 02:17:52 10° S
ALOS 3.1 02:08:40 10° NNE 02:13:10 48° E 02:17:38 10° S
ADEOS II 2.2 02:09:32 10° NNE 02:14:50 79° ESE 02:20:04 10° SSW
Cosmos 2082 Rocket 4.5 02:14:42 10° NNW 02:19:42 31° NE 02:24:40 10° ESE
Cosmos 1437 Rocket 3.6 02:16:45 10° SW 02:20:15 34° WNW 02:23:42 10° N
CZ-2C R/B 3.3 02:16:58 10° SSW 02:21:54 38° W 02:26:59 10° NNW
USA 234 3.5 02:16:49 10° ESE 02:23:22 78° NNE 02:29:56 10° WNW
